Flag for Australia Weather past 2 weeks in Traralgon, Victoria, Australia

Now
48 °F

Cool.


Feels Like: 47 °F
Forecast: 38 / 71 °F
Wind: 5 mph from East

Location: Latrobe Valley Airport

Current Time: Aug 30, 2014 at 10:49:22 PM

Latest Report: Aug 30, 2014 at 9:00 PM


Visibility: N/A

Pressure: 30.22 "Hg

Humidity: 99%

Dew point: 48 °F

Location of TraralgonLocation

Historic Weather in Traralgon — Graph

°F

Traralgon temperature yesterday

Maximum temperature yesterday: 63 °F (at 3:00 PM)
Minimum temperature yesterday: 38 °F (at 6:00 AM)
Average temperature yesterday: 50 °F

Past Weeks' High & Low Weather Summary

 TemperatureHumidityPressure
High65 °F (Aug 23, 2:00 PM)100% (Aug 16, 2:00 AM)30.49 "Hg (Aug 16, 2:00 AM)
Low36 °F (Aug 16, 2:00 AM)49% (Aug 22, 3:00 PM)30.02 "Hg (Aug 17, 2:00 PM)
Average50 °F89%30.30 "Hg
* Reported Aug 15 9:00 PM — Aug 30 9:00 PM, Traralgon, Weather by CustomWeather, © 2014

Note: Actual official high and low records may vary slightly from our data, if they occured in-between our weather recording intervals... More about our weather records

Advertising

Traralgon weather history for previous 24 hours

 ConditionsComfort  
Time TempWeatherWind HumidityBarometerVisibility
9:00 PM
Aug 30
48 °FCool.5 mph99%30.22 "HgN/A
8:00 PM48 °FCool.3 mph93%30.22 "HgN/A
6:00 PM54 °FCool.8 mph78%30.22 "HgN/A
5:00 PM59 °FCool.8 mph66%30.21 "HgN/A
3:00 PM61 °FRefreshingly cool.12 mph55%30.21 "HgN/A
2:00 PM61 °FCool.10 mph63%30.22 "HgN/A
12:00 PM60 °FCool.13 mph72%30.27 "HgN/A
11:00 AM58 °FCool.12 mph74%30.31 "HgN/A
9:00 AM48 °FScattered clouds.7 mph100%30.35 "HgN/A
8:00 AM44 °FQuite cool.7 mph100%30.36 "HgN/A
6:00 AM45 °FLow clouds.7 mph100%30.34 "Hg1 mi
5:00 AM46 °FCool.8 mph100%30.34 "HgN/A
3:00 AM48 °FLow clouds.9 mph100%30.35 "Hg1 mi
2:00 AM48 °FCool.8 mph100%30.37 "HgN/A
12:00 AM49 °FLow clouds.7 mph100%30.37 "Hg1 mi
11:00 PM
Aug 29
49 °FCool.8 mph100%30.38 "HgN/A
Weather by CustomWeather, © 2014

See weather overviewHow to use our weather pages